FW1564 Weather Reports


Display with metric or nautical units.
time (UTC)temp
F
wind
direction
speed
MPH
gust
MPH
rain 1hr
in
rain 24hr
in
rain mn
in
humidity
%
barometer
mb
20260504034031 57 343 1.0 2.0 0.00 0.12 0.00 94 1015.3
20260504033034 57 340 1.0 4.0 0.00 0.12 0.00 94 1015.3
20260504032507 57 348 0.0 4.0 0.00 0.12 0.00 94 1015.3
20260504031032 57 346 3.0 4.0 0.00 0.12 0.00 94 1015.3
20260504030032 57 341 2.0 3.0 0.00 0.12 0.00 94 1015.1
20260504025036 58 351 1.0 3.0 0.00 0.12 0.00 94 1015.4
20260504024035 58 9 1.0 2.0 0.00 0.12 0.00 94 1015.4
20260504023032 58 353 2.0 3.0 0.00 0.12 0.00 94 1015.5
20260504022511 58 335 2.0 3.0 0.00 0.12 0.00 94 1015.4
20260504021044 58 344 2.0 4.0 0.00 0.12 0.00 94 1015.5
20260504020033 58 349 2.0 3.0 0.00 0.12 0.00 94 1015.4
20260504015033 58 336 3.0 4.0 0.00 0.12 0.00 95 1015.6
20260504014034 58 343 3.0 4.0 0.00 0.12 0.00 96 1015.6
20260504013032 57 344 2.0 6.0 0.00 0.12 0.00 96 1015.9
20260504012521 57 338 2.0 4.0 0.00 0.12 0.00 97 1015.9
20260504011035 57 346 3.0 6.0 0.00 0.12 0.00 97 1016.0
20260504010036 57 359 2.0 4.0 0.00 0.12 0.00 97 1016.2
20260504005033 57 340 3.0 3.0 0.00 0.12 0.00 98 1016.0
20260504004033 57 354 2.0 4.0 0.00 0.12 0.00 98 1016.2
20260504003032 57 347 2.0 2.0 0.00 0.12 0.00 98 1016.3
20260504002033 57 341 1.0 3.0 0.00 0.12 0.00 98 1016.3
20260504001522 57 338 3.0 6.0 0.00 0.12 0.00 98 1016.2
20260504000037 57 349 1.0 1.0 0.00 0.12 0.00 98 1016.4
20260503235031 57 356 1.0 2.0 0.00 0.12 0.00 98 1016.5
20260503234034 57 23 0.0 2.0 0.00 0.12 0.00 98 1016.6
20260503233031 57 344 3.0 4.0 0.00 0.12 0.00 98 1016.5
20260503232031 57 342 1.0 2.0 0.00 0.12 0.00 98 1016.6
20260503231031 57 343 1.0 1.0 0.00 0.12 0.00 98 1016.4
20260503230032 58 347 0.0 2.0 0.00 0.12 0.00 98 1016.5
20260503225031 58 354 1.0 2.0 0.00 0.12 0.12 98 1016.5
20260503224031 57 337 1.0 2.0 0.00 0.12 0.12 98 1016.4
20260503223036 57 3 1.0 3.0 0.00 0.12 0.12 98 1016.3
20260503222035 59 28 0.0 1.0 0.00 0.12 0.12 98 1016.4
20260503221031 59 81 0.0 0.0 0.00 0.12 0.12 98 1016.6
20260503220031 59 115 0.0 1.0 0.00 0.12 0.12 98 1016.6
20260503215032 59 125 0.0 2.0 0.00 0.12 0.12 98 1016.5
20260503214033 59 138 0.0 1.0 0.01 0.12 0.12 98 1016.3
20260503213032 59 84 0.0 0.0 0.01 0.12 0.12 98 1016.2
20260503212031 59 87 0.0 3.0 0.01 0.12 0.12 98 1016.2
20260503211033 59 79 1.0 2.0 0.01 0.12 0.12 98 1015.9
20260503210034 59 146 1.0 3.0 0.01 0.12 0.12 98 1015.8
20260503205033 59 126 0.0 2.0 0.02 0.12 0.12 98 1015.9
20260503204506 59 78 0.0 1.0 0.01 0.11 0.11 98 1015.6
20260503203031 59 128 1.0 1.0 0.01 0.11 0.11 98 1015.8
20260503202031 59 109 0.0 1.0 0.01 0.11 0.11 98 1015.7
20260503201032 59 101 0.0 0.0 0.02 0.11 0.11 98 1015.6
20260503200012 59 120 0.0 1.0 0.02 0.11 0.11 98 1015.5
20260503194943 59 124 0.0 1.0 0.01 0.10 0.10 98 1015.5
20260503194422 59 104 0.0 1.0 0.01 0.10 0.10 98 1015.5
20260503192943 59 87 1.0 2.0 0.01 0.10 0.10 98 1015.3
20260503191942 59 129 0.0 2.0 0.01 0.10 0.10 98 1015.2
20260503190943 59 101 0.0 1.0 0.01 0.09 0.09 97 1015.4
20260503190415 59 80 0.0 2.0 0.01 0.09 0.09 98 1015.2
20260503184942 59 111 0.0 1.0 0.01 0.09 0.09 97 1014.8
20260503184416 59 123 0.0 2.0 0.01 0.09 0.09 97 1015.3
20260503182930 59 111 0.0 2.0 0.01 0.09 0.09 97 1015.3
20260503181930 59 104 0.0 2.0 0.01 0.09 0.09 97 1015.1
20260503180930 59 147 2.0 3.0 0.00 0.08 0.08 97 1015.1
20260503175931 59 139 1.0 4.0 0.01 0.08 0.08 97 1015.4
20260503174930 59 141 1.0 4.0 0.01 0.08 0.08 97 1015.2
20260503173930 60 134 1.0 6.0 0.01 0.08 0.08 97 1015.5
20260503172930 60 59 3.0 4.0 0.01 0.08 0.08 97 1015.2
20260503172843 60 131 2.0 3.0 0.01 0.08 0.08 97 1015.4
20260503170930 59 69 1.0 3.0 0.01 0.08 0.08 97 1015.4
20260503130930 61 81 1.0 4.0 0.00 0.01 0.01 95 1016.6
20260503080930 58 75 1.0 2.0 0.00 0.00 0.00 86 1016.6
20260503072929 58 32 0.0 1.0 0.00 0.00 0.00 87 1016.5
20260503071930 58 5 1.0 1.0 0.00 0.00 0.00 85 1016.5
20260503071408 57 6 0.0 1.0 0.00 0.00 0.00 85 1016.4
20260503054930 57 344 0.0 2.0 0.00 0.00 0.00 85 1015.9
20260503053930 57 348 2.0 3.0 0.00 0.00 0.00 85 1016.0
20260503052930 57 8 0.0 1.0 0.00 0.00 0.00 85 1016.0
20260503051931 57 8 0.0 0.0 0.00 0.00 0.00 84 1015.8
20260503051850 57 8 0.0 1.0 0.00 0.00 0.00 83 1015.8
20260503045930 57 8 0.0 0.0 0.00 0.00 0.00 82 1015.9
20260503044930 57 8 0.0 2.0 0.00 0.00 0.00 81 1015.9
20260503043930 57 332 1.0 3.0 0.00 0.00 0.00 81 1016.1
20260503042931 57 355 0.0 1.0 0.00 0.00 0.00 82 1016.1
20260503041930 57 359 1.0 3.0 0.00 0.00 0.00 81 1016.2
20260503041421 56 337 2.0 2.0 0.00 0.00 0.00 82 1016.3
20260503035930 57 351 1.0 3.0 0.00 0.00 0.00 81 1016.2
20260503034931 56 342 1.0 3.0 0.00 0.00 0.00 81 1016.3